GP1970 Weather Reports


time (UTC)temp
C
wind
direction
speed
KPH
gust
KPH
rain 1hr
cm
rain 24hr
cm
rain mn
cm
humidity
%
barometer
mb
20260508025518 6 241 11.3 14.5 0.00 0.43 0.00 90 1004.0
20260508024515 6 255 9.7 14.5 0.00 0.43 0.00 90 1004.3
20260508023519 5 271 6.4 11.3 0.00 0.43 0.00 90 1004.4
20260508022522 5 277 6.4 11.3 0.00 0.43 0.00 90 1004.4
20260508021526 5 227 6.4 8.0 0.00 0.43 0.00 90 1004.3
20260508020550 5 216 6.4 8.0 0.00 0.43 0.00 90 1004.5
20260508015515 5 208 6.4 8.0 0.00 0.43 0.00 89 1004.4
20260508014519 5 255 9.7 12.9 0.00 0.43 0.00 89 1004.0
20260508013543 5 230 8.0 12.9 0.00 0.43 0.00 89 1004.3
20260508012527 6 225 8.0 11.3 0.00 0.43 0.00 88 1004.7
20260508011530 6 219 6.4 11.3 0.00 0.43 0.00 87 1004.6
20260508010516 6 236 6.4 11.3 0.00 0.43 0.00 87 1004.5
20260508005520 6 267 8.0 14.5 0.00 0.43 0.00 86 1004.2
20260508004523 6 262 8.0 11.3 0.00 0.43 0.00 86 1003.9
20260508003527 6 240 8.0 12.9 0.00 0.43 0.00 85 1004.1
20260508002551 6 241 8.0 12.9 0.00 0.43 0.00 84 1004.2
20260508001536 6 270 11.3 17.7 0.00 0.43 0.00 84 1004.1
20260508000520 6 254 8.0 16.1 0.00 0.43 0.00 84 1004.0
20260507235603 6 232 8.0 11.3 0.00 0.43 0.00 83 1003.4
20260507234547 7 243 11.3 14.5 0.00 0.43 0.00 82 1003.4
20260507233531 7 250 8.0 12.9 0.00 0.43 0.00 82 1003.5
20260507232516 8 249 14.5 24.1 0.00 0.43 0.00 81 1003.5
20260507231520 8 281 11.3 19.3 0.00 0.43 0.00 80 1003.3
20260507230523 9 269 12.9 19.3 0.00 0.43 0.00 80 1002.9
20260507225521 9 281 14.5 20.9 0.00 0.43 0.43 80 1002.7
20260507224519 9 262 14.5 20.9 0.00 0.43 0.43 80 1002.8
20260507223516 8 243 11.3 17.7 0.00 0.43 0.43 81 1003.0
20260507222520 8 258 11.3 16.1 0.00 0.43 0.43 80 1002.9
20260507221524 8 250 12.9 19.3 0.00 0.43 0.43 80 1002.4
20260507220527 8 255 11.3 16.1 0.00 0.43 0.43 80 1003.1
20260507215531 8 257 9.7 12.9 0.00 0.43 0.43 80 1003.0
20260507214517 8 257 12.9 20.9 0.00 0.46 0.43 80 1002.4
20260507213540 8 273 12.9 17.7 0.00 0.48 0.43 80 1002.6
20260507212524 9 269 12.9 17.7 0.00 0.48 0.43 80 1002.7
20260507211528 9 272 11.3 16.1 0.00 0.48 0.43 80 1000.0
20260507210531 10 274 9.7 12.9 0.00 0.48 0.43 80 1001.9
20260507205537 10 251 14.5 24.1 0.00 0.48 0.43 80 1002.2
20260507204541 9 237 8.0 12.9 0.00 0.48 0.43 82 1002.0
20260507203524 8 224 6.4 9.7 0.00 0.48 0.43 83 1002.2
20260507202528 8 6.4 6.4 0.00 0.48 0.43 84 1002.3
20260507201532 7 236 6.4 9.7 0.00 0.48 0.43 84 1002.2
20260507200517 8 234 9.7 14.5 0.00 0.48 0.43 83 1002.5
20260507195521 8 250 9.7 14.5 0.00 0.48 0.43 83 1002.3
20260507194544 8 259 8.0 14.5 0.00 0.48 0.43 83 1002.2
20260507193528 8 286 12.9 17.7 0.00 0.48 0.43 82 1002.4
20260507192531 9 254 11.3 14.5 0.00 0.48 0.43 82 1002.5
20260507191517 9 284 11.3 17.7 0.00 0.48 0.43 82 1002.3
20260507190541 10 300 12.9 20.9 0.00 0.48 0.43 81 1002.1
20260507185525 11 282 8.0 11.3 0.00 0.48 0.43 80 1001.8
20260507184522 11 292 8.0 12.9 0.00 0.48 0.43 80 1001.8
20260507183520 11 275 4.8 8.0 0.00 0.48 0.43 81 1001.9
20260507182517 12 281 4.8 6.4 0.00 0.48 0.43 84 1002.0
20260507181535 10 272 4.8 8.0 0.00 0.53 0.43 86 1002.5
20260507180545 10 234 1.6 4.8 0.00 0.53 0.43 86 1002.2
20260507175528 10 256 6.4 9.7 0.00 0.56 0.43 86 1002.4
20260507174532 10 254 6.4 9.7 0.00 0.58 0.43 87 1002.7
20260507173537 10 229 8.0 11.3 0.00 0.64 0.43 88 1002.5
20260507172521 8 230 8.0 12.9 0.00 0.66 0.43 90 1002.4
20260507171525 8 242 9.7 14.5 0.03 0.69 0.43 91 1002.6
20260507170528 8 240 11.3 17.7 0.05 0.74 0.43 93 1002.8
20260507165532 8 215 4.8 9.7 0.13 0.76 0.43 94 1002.6
20260507164518 8 248 6.4 12.9 0.20 0.81 0.43 94 1002.8
20260507163541 7 210 8.0 14.5 0.33 0.84 0.43 94 1003.0
20260507162525 7 224 9.7 14.5 0.33 0.86 0.43 96 1003.0
20260507161529 7 231 4.8 8.0 0.36 0.86 0.41 96 1002.7
20260507160532 7 246 6.4 9.7 0.38 0.89 0.38 96 1003.2
20260507155538 7 187 3.2 4.8 0.30 0.86 0.30 95 1002.8
20260507154522 7 256 3.2 6.4 0.23 0.84 0.23 95 1003.1
20260507153525 7 281 4.8 6.4 0.10 0.76 0.10 95 1003.0
20260507152529 7 265 3.2 6.4 0.10 0.81 0.10 95 1003.2
20260507151532 7 257 4.8 6.4 0.05 0.84 0.05 94 1003.9
20260507150518 7 240 4.8 6.4 0.00 0.86 0.00 94 1003.8
20260507145522 7 284 3.2 4.8 0.00 0.91 0.00 94 1003.7
20260507144525 7 298 4.8 8.0 0.00 0.97 0.00 94 1003.7
20260507143523 7 264 4.8 8.0 0.00 1.02 0.00 94 1003.8
20260507142514 7 224 4.8 6.4 0.00 1.07 0.00 94 1003.9
20260507141518 7 261 4.8 9.7 0.00 1.12 0.00 94 1003.8
20260507140516 7 274 8.0 11.3 0.00 1.17 0.00 94 1004.1
20260507135525 7 256 9.7 14.5 0.00 1.22 0.00 94 1003.8
20260507134529 7 261 6.4 8.0 0.00 1.24 0.00 95 1003.7
20260507133515 7 254 9.7 12.9 0.00 1.27 0.00 95 1003.5
20260507132518 7 215 6.4 11.3 0.00 1.32 0.00 95 1003.4
20260507131522 7 241 9.7 12.9 0.00 1.32 0.00 95 1003.3
20260507130526 7 231 8.0 11.3 0.00 1.37 0.00 95 1003.4
20260507125529 7 251 6.4 11.3 0.00 1.42 0.00 96 1003.5
20260507124515 7 239 8.0 11.3 0.00 1.45 0.00 97 1004.1
20260507123519 7 251 8.0 11.3 0.00 1.47 0.00 97 1004.1
20260507122542 7 229 6.4 11.3 0.00 1.50 0.00 97 1003.8
20260507121526 7 223 6.4 9.7 0.00 1.52 0.00 98 1003.9
20260507120530 6 207 6.4 9.7 0.00 1.57 0.00 98 1003.4
20260507115535 6 220 4.8 8.0 0.00 1.60 0.00 98 1004.1
20260507114519 6 211 4.8 9.7 0.00 1.63 0.00 99 1003.9
20260507113522 6 204 4.8 8.0 0.00 1.63 0.00 99 1003.6
20260507112526 6 215 3.2 6.4 0.00 1.63 0.00 99 1003.5
20260507111530 6 232 4.8 6.4 0.00 1.63 0.00 99 1004.0
20260507110515 6 238 4.8 8.0 0.00 1.63 0.00 99 1004.1
20260507105519 6 222 4.8 8.0 0.00 1.63 0.00 99 1003.6
20260507104523 5 252 4.8 8.0 0.00 1.63 0.00 99 1004.4
20260507103526 5 243 4.8 9.7 0.00 1.63 0.00 99 1003.9
20260507102524 5 249 4.8 8.0 0.00 1.63 0.00 99 1003.6
20260507101516 5 215 4.8 8.0 0.00 1.63 0.00 99 1003.5
20260507100519 5 141 1.6 3.2 0.00 1.63 0.00 99 1003.0
20260507095537 5 192 3.2 4.8 0.00 1.63 0.00 99 1003.7
20260507094526 5 195 3.2 4.8 0.00 1.63 0.00 99 1003.5
20260507093530 5 197 3.2 4.8 0.00 1.63 0.00 99 1003.7
20260507092515 5 228 3.2 4.8 0.00 1.63 0.00 99 1003.9
20260507091539 5 209 1.6 3.2 0.00 1.63 0.00 99 1004.2
20260507090523 5 220 1.6 3.2 0.00 1.63 0.00 99 1004.1
20260507085547 5 198 3.2 3.2 0.00 1.63 0.00 99 1004.2
20260507084530 5 190 1.6 4.8 0.00 1.63 0.00 99 1004.2
20260507083516 5 225 3.2 4.8 0.00 1.63 0.00 99 1004.2
20260507082519 5 247 1.6 3.2 0.00 1.63 0.00 99 1004.3
20260507081523 5 254 0.0 3.2 0.00 1.63 0.00 99 1004.3
20260507080527 5 0.0 0.0 0.00 1.63 0.00 99 1004.1
20260507075530 5 0.0 0.0 0.00 1.63 0.00 99 1004.2
20260507074516 5 225 1.6 3.2 0.00 1.63 0.00 99 1004.2
20260507073520 5 0.0 0.0 0.00 1.63 0.00 99 1004.3
20260507072523 5 249 1.6 4.8 0.00 1.63 0.00 99 1004.4
20260507071527 5 0.0 0.0 0.00 1.63 0.00 99 1004.4
20260507070551 5 0.0 0.0 0.00 1.63 0.00 99 1004.4
20260507065516 5 0.0 0.0 0.00 1.63 0.00 99 1004.4
20260507064520 4 0.0 0.0 0.00 1.63 0.00 99 1004.6
20260507063523 4 0.0 0.0 0.00 1.63 0.00 99 1004.7
20260507062527 4 0.0 0.0 0.00 1.63 0.00 99 1004.7
20260507061525 4 0.0 0.0 0.00 1.63 0.00 99 1004.7
20260507060516 4 0.0 0.0 0.00 1.63 0.00 99 1004.9
20260507055520 5 0.0 0.0 0.00 1.63 0.00 99 1005.1
20260507054517 5 203 0.0 3.2 0.00 1.63 0.00 99 1004.9
20260507053515 5 0.0 1.6 0.00 1.63 0.00 99 1005.1
20260507052551 5 0.0 0.0 0.00 1.63 0.00 99 1005.2
20260507051517 5 211 1.6 3.2 0.00 1.63 0.00 98 1005.4
20260507050520 5 214 3.2 4.8 0.00 1.63 0.00 98 1005.3
20260507045604 5 158 1.6 3.2 0.00 1.63 0.00 98 1005.3
20260507044528 5 165 0.0 3.2 0.00 1.63 0.00 98 1005.4
20260507043551 6 194 1.6 4.8 0.00 1.63 0.00 98 1005.3
20260507042517 6 221 3.2 8.0 0.00 1.63 0.00 98 1005.3
20260507041521 6 237 4.8 9.7 0.00 1.63 0.00 98 1005.5
20260507040524 6 267 4.8 8.0 0.00 1.63 0.00 98 1005.4
20260507035528 6 242 4.8 6.4 0.00 1.63 0.00 98 1005.7
20260507034531 5 215 3.2 6.4 0.00 1.63 0.00 98 1005.9
20260507033517 5 186 3.2 6.4 0.00 1.63 0.00 98 1005.8
20260507032521 5 218 3.2 4.8 0.00 1.63 0.00 98 1005.8
20260507031524 5 210 3.2 4.8 0.00 1.63 0.00 98 1005.9
20260507030528 5 247 3.2 6.4 0.00 1.63 0.00 98 1005.7